Weather reports worldwide

Advertisment
Strbske Pleso, Slovakia (11933): temperature & dewpoint: 22.02.2020 08:00:00 - 28.02.2020 08:00:00 (CET)Strbske Pleso, Slovakia (11933): wind speed: 22.02.2020 08:00:00 - 28.02.2020 08:00:00 (CET)Strbske Pleso, Slovakia (11933): wind direction: 22.02.2020 08:00:00 - 28.02.2020 08:00:00 (CET)Strbske Pleso, Slovakia (11933): visibility: 22.02.2020 08:00:00 - 28.02.2020 08:00:00 (CET)
Date & Time tt [°C] td [°C] ff [km/h] ff [kn] dd vv [km]
28.02.2020 08:00:00 -4,8 -6,2 4 2 N 1,3
28.02.2020 07:00:00 -5,3 -6,7 4 2 N 1,1
28.02.2020 06:00:00 -5,6 -7,0 0 0 N -
28.02.2020 05:00:00 -6,0 -7,1 4 2 N -
28.02.2020 04:00:00 -5,6 -6,8 7 4 N -
28.02.2020 03:00:00 -5,4 -6,8 4 2 N -
28.02.2020 02:00:00 -5,5 -7,0 4 2 N -
28.02.2020 01:00:00 -5,2 -7,8 4 2 N -
28.02.2020 00:00:00 -5,2 -9,6 4 2 N -
27.02.2020 23:00:00 -5,5 -10,6 7 4 N -
27.02.2020 22:00:00 -5,9 -11,6 4 2 N -
27.02.2020 21:00:00 -5,6 -9,8 7 4 N 30
27.02.2020 20:00:00 -5,4 -9,3 4 2 N 30
27.02.2020 19:00:00 -4,9 -8,5 7 4 N 30
27.02.2020 18:00:00 - - - - - -
27.02.2020 17:00:00 -3,7 -6,8 7 4 N 35
27.02.2020 16:00:00 -3,2 -7,5 4 2 N 30
27.02.2020 15:00:00 -1,7 -5,9 4 2 N 15
27.02.2020 14:00:00 -1,4 -7,5 7 4 N 30
27.02.2020 13:00:00 -2,7 -6,5 7 4 N 15
27.02.2020 12:00:00 -1,4 -5,8 7 4 N 3,0
27.02.2020 11:00:00 -0,7 -7,7 7 4 N 8
27.02.2020 10:00:00 -1,5 -11,1 7 4 N 25
27.02.2020 09:00:00 -3,6 -11,8 11 6 NNE 25
27.02.2020 08:00:00 -4,3 -12,4 11 6 NNE 20
27.02.2020 07:00:00 -4,9 -11,7 11 6 N 20
27.02.2020 06:00:00 -5,4 -8,0 4 2 N -
27.02.2020 05:00:00 -5,0 -10,4 4 2 N -
27.02.2020 04:00:00 -4,6 -10,6 7 4 N -
27.02.2020 03:00:00 -5,3 -10,3 7 4 N -
27.02.2020 02:00:00 -5,7 -10,3 4 2 N -
27.02.2020 01:00:00 -5,1 -10,1 7 4 N -
27.02.2020 00:00:00 -5,2 -11,1 4 2 N -
26.02.2020 23:00:00 -5,9 -11,6 4 2 N -
26.02.2020 22:00:00 -5,6 -7,4 7 4 N -
26.02.2020 21:00:00 -4,7 -5,8 7 4 N 60
26.02.2020 20:00:00 -3,6 -4,3 4 2 N 40
26.02.2020 19:00:00 -3,1 -3,5 7 4 N 0,8
26.02.2020 18:00:00 -2,7 -3,1 7 4 N 0,5
26.02.2020 17:00:00 -2,1 -2,6 7 4 N 1,2
26.02.2020 16:00:00 -1,6 -2,7 11 6 W 10
26.02.2020 15:00:00 -0,2 -3,1 7 4 N 25
26.02.2020 14:00:00 -0,1 -2,6 7 4 N 12
26.02.2020 13:00:00 -0,1 -2,5 7 4 N 40
26.02.2020 12:00:00 -0,7 -2,1 7 4 N 3,5
26.02.2020 11:00:00 0,5 -2,2 7 4 N 20
26.02.2020 10:00:00 0,5 -2,2 7 4 N 15
26.02.2020 09:00:00 0,2 -1,5 7 4 N 1,5
26.02.2020 08:00:00 0,6 -1,9 7 4 N 50
26.02.2020 07:00:00 0,4 -2,0 7 4 N 65
26.02.2020 06:00:00 0,8 -2,6 7 4 N -
26.02.2020 05:00:00 1,0 -3,3 11 6 N -
26.02.2020 04:00:00 0,4 -1,7 7 4 N -
26.02.2020 03:00:00 0,8 -1,0 7 4 N -
26.02.2020 02:00:00 0,8 -0,3 11 6 W -
26.02.2020 01:00:00 0,7 -0,3 7 4 N -
26.02.2020 00:00:00 1,4 -0,5 7 4 N -
25.02.2020 23:00:00 2,1 -0,2 11 6 N -
25.02.2020 22:00:00 2,8 -0,8 11 6 N -
25.02.2020 21:00:00 3,0 -1,2 11 6 N 60
25.02.2020 20:00:00 3,2 -1,9 7 4 N 60
25.02.2020 19:00:00 2,8 -2,3 7 4 N 60
25.02.2020 18:00:00 3,3 -2,6 11 6 N 60
25.02.2020 17:00:00 3,5 -2,9 11 6 N 75
25.02.2020 16:00:00 4,5 -1,1 11 6 N 75
25.02.2020 15:00:00 4,4 -0,2 7 4 N 75
25.02.2020 14:00:00 4,2 0,4 7 4 N 75
25.02.2020 13:00:00 3,5 1,0 14 8 N 75
25.02.2020 12:00:00 1,6 1,2 11 6 W 20
25.02.2020 11:00:00 1,0 0,9 11 6 N 0,3
25.02.2020 10:00:00 0,8 0,5 11 6 N 0,4
25.02.2020 09:00:00 0,4 0,1 11 6 N 0,2
25.02.2020 08:00:00 0,4 0,1 11 6 N 1,0
25.02.2020 07:00:00 0,5 -0,2 11 6 N 10
25.02.2020 06:00:00 0,7 -0,2 11 6 N -
25.02.2020 05:00:00 0,6 -0,1 11 6 N -
25.02.2020 04:00:00 0,3 -0,3 11 6 N -
25.02.2020 03:00:00 -0,6 -1,0 11 6 N -
25.02.2020 02:00:00 -2,2 -2,5 7 4 N -
25.02.2020 01:00:00 -3,1 -3,9 7 4 N -
25.02.2020 00:00:00 -2,2 -4,8 7 4 N -
24.02.2020 23:00:00 -1,4 -9,3 11 6 N -
24.02.2020 22:00:00 -3,1 -6,7 7 4 N -
24.02.2020 21:00:00 -3,1 -8,0 11 6 W 30
24.02.2020 20:00:00 -3,4 -7,5 7 4 N 30
24.02.2020 19:00:00 -3,4 -7,4 7 4 N 30
24.02.2020 18:00:00 -3,3 -6,4 7 4 W 45
24.02.2020 17:00:00 -2,8 -6,6 4 2 N 60
24.02.2020 16:00:00 -1,4 -6,5 7 4 N 30
24.02.2020 15:00:00 -0,5 -8,0 7 4 N 30
24.02.2020 14:00:00 -0,5 -7,3 7 4 N 30
24.02.2020 13:00:00 0,3 -6,8 7 4 W 20
24.02.2020 12:00:00 0,7 -6,8 11 6 W 12
24.02.2020 11:00:00 0,2 -8,7 7 4 N 15
24.02.2020 10:00:00 -1,8 -8,5 7 4 N 2,5
24.02.2020 09:00:00 -3,7 -7,6 7 4 N 1,1
24.02.2020 08:00:00 -4,3 -8,2 7 4 N 1,2
24.02.2020 07:00:00 -4,5 -7,1 14 8 WNW 1,1
24.02.2020 06:00:00 -4,0 -8,5 22 12 W -
24.02.2020 05:00:00 -3,2 -6,5 11 6 N -
24.02.2020 04:00:00 -2,0 -6,4 14 8 N -
24.02.2020 03:00:00 -0,5 -4,4 22 12 W -
24.02.2020 02:00:00 0,5 -1,4 11 6 N -
24.02.2020 01:00:00 1,4 0,2 14 8 N -
24.02.2020 00:00:00 2,9 2,9 14 8 N -
23.02.2020 23:00:00 2,6 2,6 11 6 N -
23.02.2020 22:00:00 2,5 2,5 11 6 N -
23.02.2020 21:00:00 2,5 2,5 14 8 WNW 0,1
23.02.2020 20:00:00 2,0 2,0 11 6 W 0,1
23.02.2020 19:00:00 1,4 1,3 11 6 W 0,3
23.02.2020 18:00:00 0,4 0,3 11 6 W 1,0
23.02.2020 17:00:00 0,1 0,0 11 6 W 1,5
23.02.2020 16:00:00 0,2 0,1 11 6 W 1,0
23.02.2020 15:00:00 0,3 0,0 11 6 W 1,0
23.02.2020 14:00:00 0,3 0,0 11 6 W 0,8
23.02.2020 13:00:00 0,6 0,3 7 4 N 0,3
23.02.2020 12:00:00 1,1 0,2 14 8 W 1,0
23.02.2020 11:00:00 1,9 0,0 11 6 W 50
23.02.2020 10:00:00 2,1 -0,2 11 6 W 50
23.02.2020 09:00:00 1,5 -0,3 11 6 W 50
23.02.2020 08:00:00 0,2 -0,5 11 6 W 20
23.02.2020 07:00:00 -0,2 -1,2 11 6 W 20
23.02.2020 06:00:00 2,0 -1,8 14 8 N -
23.02.2020 05:00:00 0,1 -0,6 14 8 N -
23.02.2020 04:00:00 -0,3 -0,8 14 8 N -
23.02.2020 03:00:00 1,5 -4,6 11 6 N -
23.02.2020 02:00:00 1,9 -5,5 18 10 W -
23.02.2020 01:00:00 2,0 -5,8 14 8 N -
23.02.2020 00:00:00 2,1 -6,2 14 8 N -
22.02.2020 23:00:00 2,4 -8,0 18 10 W -
22.02.2020 22:00:00 2,8 -9,4 18 10 W -
22.02.2020 21:00:00 0,9 -8,9 14 8 W 50
22.02.2020 20:00:00 -0,3 -8,5 14 8 W 50
22.02.2020 19:00:00 -2,5 -8,0 7 4 N 50
22.02.2020 18:00:00 -2,6 -6,6 4 2 N 50
22.02.2020 17:00:00 -1,5 -8,2 7 4 N 60
22.02.2020 16:00:00 -0,9 -7,2 7 4 N 60
22.02.2020 15:00:00 0,1 -7,2 7 4 N 65
22.02.2020 14:00:00 -0,3 -7,3 7 4 N 65
22.02.2020 13:00:00 -0,5 -7,7 7 4 N 60
22.02.2020 12:00:00 -0,8 -7,6 7 4 N 60
22.02.2020 11:00:00 -0,8 -8,7 14 8 W 60
22.02.2020 10:00:00 -0,9 -9,3 7 4 N 60
22.02.2020 09:00:00 -3,5 -9,5 7 4 N 45
22.02.2020 08:00:00 -4,9 -10,1 7 4 N 40

tt = temperature
td = dewpoint
ff = wind speed
dd = wind direction
vv = visibility

Next stations